This demonstration page uses our WeatherBlox Daily Observations layout. Learn more.

Left ArrowRight Arrow

Hourly Observations for December 7, 2019

Temp ( °F °C ) Dew Point ( °F °C ) Humidity (%) Winds ( mph kmh ) Pressure ( in mb ) Visibility ( mi km ) Precip ( " mm )
12:53 am 00:53 Mostly Clear 38 3.3 30 -1.1 73 73 SW 15 24 29.80 1009 10 16 0.00 0.00
1:53 am 01:53 Clear 39 3.9 29 -1.7 67 67 SW 14 22 29.78 1009 10 16 0.00 0.00
2:53 am 02:53 Clear 36 2.2 28 -2.2 73 73 WNW 7 11 29.78 1008 10 16 0.00 0.00
3:53 am 03:53 Clear 39 3.9 29 -1.7 67 67 W 6 9 29.76 1008 10 16 0.00 0.00
4:53 am 04:53 Clear 38 3.3 29 -1.7 70 70 WSW 8 13 29.74 1007 10 16 0.00 0.00
5:53 am 05:53 Clear 39 3.9 29 -1.7 67 67 SW 16 26 29.72 1007 10 16 0.00 0.00
6:53 am 06:53 Clear 40 4.4 29 -1.7 65 65 WSW 12 19 29.71 1006 10 16 0.00 0.00
7:53 am 07:53 Clear 38 3.3 29 -1.7 70 70 W 7 11 29.70 1006 10 16 0.00 0.00
8:53 am 08:53 Sunny 40 4.4 28 -2.2 63 63 WSW 7 11 29.71 1006 10 16 0.00 0.00
9:53 am 09:53 Mostly Sunny 41 5 29 -1.7 62 62 SW 24 39 29.72 1006 10 16 0.00 0.00
10:53 am 10:53 Mostly Cloudy 41 5 29 -1.7 62 62 SW 20 31 29.73 1007 10 16 0.00 0.00
11:53 am 11:53 Cloudy 42 5.6 30 -1.1 62 62 W 10 17 29.71 1006 10 16 0.00 0.00
12:53 pm 12:53 Cloudy 43 6.1 31 -0.6 63 63 W 8 13 29.69 1006 10 16 0.00 0.00
1:53 pm 13:53 Cloudy 43 6.1 32 0 65 65 SW 6 9 29.68 1005 10 16 0.00 0.00
2:53 pm 14:53 Cloudy 42 5.6 32 0 68 68 WSW 7 11 29.70 1006 10 16 0.00 0.00
3:53 pm 15:53 Cloudy 41 5 32 0 70 70 SW 6 9 29.70 1006 10 16 0.00 0.00
4:53 pm 16:53 Cloudy 42 5.6 32 0 68 68 NW 12 19 29.72 1007 10 16 0.00 0.00
5:06 pm 17:06 Cloudy 40 4.4 31 -0.6 70 70 NW 13 20 29.73 1007 10 16 0.00 0.00
5:53 pm 17:53 Cloudy 33 0.6 28 -2.2 82 82 NW 12 19 29.76 1008 10 16 0.00 0.00
6:53 pm 18:53 Cloudy 28 -2.2 23 -5 81 81 NNW 8 13 29.81 1009 7 11 0.00 0.00
7:17 pm 19:17 Cloudy 27 -2.8 22 -5.6 81 81 NNW 12 19 29.89 1012 8 13 0.00 0.00
7:53 pm 19:53 Cloudy with Light Snow 27 -2.8 22 -5.6 81 81 N 8 13 29.83 1010 5 8 0.00 0.00
8:45 pm 20:45 Cloudy with Light Snow 27 -2.8 24 -4.4 89 89 N 12 19 29.90 1013 3 5 0.00 0.00
8:53 pm 20:53 Cloudy with Light Snow 26 -3.3 22 -5.6 84 84 N 10 17 29.85 1011 2 3 0.00 0.00
9:02 pm 21:02 Cloudy with Light Snow 26 -3.3 22 -5.6 84 84 N 8 13 29.93 1013 2 3 0.00 0.00
9:17 pm 21:17 Cloudy with Light Snow 25 -3.9 22 -5.6 88 88 NNE 7 11 29.92 1013 4 6 0.00 0.00
9:29 pm 21:29 Cloudy with Light Snow 25 -3.9 22 -5.6 88 88 NNE 7 11 29.92 1013 2 3 0.00 0.00
9:36 pm 21:36 Cloudy with Light Snow 25 -3.9 22 -5.6 88 88 NNE 8 13 29.92 1013 2 2 0.01 0.25
9:53 pm 21:53 Cloudy with Light Snow 24 -4.4 22 -5.6 91 91 NNE 7 11 29.85 1011 2 3 0.01 0.25
10:01 pm 22:01 Cloudy with Light Snow 24 -4.4 22 -5.6 91 91 NNE 7 11 29.94 1014 2 3 0.00 0.00
10:12 pm 22:12 Cloudy with Light Snow 25 -3.9 21 -6.1 85 85 NNE 6 9 29.92 1013 3 5 0.01 0.25
10:16 pm 22:16 Cloudy with Light Snow 24 -4.4 21 -6.1 88 88 NNE 6 9 29.94 1014 3 4 0.01 0.25
10:26 pm 22:26 Cloudy with Light Snow 25 -4 21 -6 86 86 NNE 5 7 29.93 1014 3 5 0.00 0.00
10:53 pm 22:53 Cloudy with Light Snow 24 -4.4 20 -6.7 84 84 NE 10 17 29.85 1011 5 8 0.01 0.25
11:53 pm 23:53 Cloudy 24 -4.4 20 -6.7 84 84 NE 8 13 29.85 1011 10 16 0.00 0.00

Powered by AerisWeather